Wolf Point, MT

8:49 PM MST on December 09, 2016 (GMT -0700)
Clayton

Weather History for KOLF - November, 2012

Change the Weather History Date:

Friday, November 9, 2012

  Actual Average Record
Temperature  
Mean Temperature 24 °F -  
Max Temperature 28 °F 44 °F 70 °F (2016)
Min Temperature 19 °F 18 °F -2 °F (2003)
Degree Days  
Heating Degree Days 41    
Cooling Degree Days 0    
Moisture  
Dew Point 21 °F    
Average Humidity 87    
Maximum Humidity 93    
Minimum Humidity 84    
Precipitation  
Precipitation 0.02 in 0.01 in 0.06 in (2014)
Month to date precipitation 0.26 0.16  
Year to date precipitation 10.13 11.65  
Sea Level Pressure  
Sea Level Pressure 29.97 in    
Wind  
Wind Speed 21 mph (ENE)    
Max Wind Speed 26 mph    
Max Gust Speed 33 mph    
Visibility 4 miles    
Events Fog , Rain , Snow    
T = Trace of Precipitation, MM = Missing Value Source: NWS Daily Summary

Daily Weather History Graph

Daily Weather History Graph

Search for Another Location

Airport or City:

Trip Planner

Search our weather history database for the weather conditions in past years. The results will help you decide how hot, cold, wet, or windy it might be!

Date:

Astronomy

Nov. 09, 2012 Rise Set
Actual Time 7:00 AM MST 4:31 PM MST
Civil Twilight 6:27 AM MST 5:04 PM MST
Nautical Twilight 5:49 AM MST 5:41 PM MST
Astronomical Twilight 5:13 AM MST 6:18 PM MST
Moon 1:41 AM MST (11/9) 2:03 PM MST (11/9)
Length of Visible Light 10h 37m
Length of Day
9h 30m
Waning Crescent, 22% of the Moon is Illuminated
Nov 9
Waning Crescent
Nov 13
New
Nov 20
First Quarter
Nov 28
Full
Dec 6
Last Quarter

Hourly Weather History & Observations

Time (MST) Temp. Windchill Dew Point Humidity Pressure Visibility Wind Dir Wind Speed Gust Speed Precip Events Conditions
12:07 AM 28.4 °F 13.5 °F 24.8 °F 86% 30.01 in 2.5 mi ENE 26.5 mph 33.4 mph 0.00 in Snow Light Snow
12:25 AM 28.4 °F 14.1 °F 24.8 °F 86% 30.02 in 4.0 mi East 24.2 mph 32.2 mph 0.00 in Snow Light Snow
12:53 AM 28.0 °F 14.9 °F 25.0 °F 88% 30.09 in 5.0 mi East 19.6 mph 28.8 mph 0.00 in   Overcast
1:15 AM 28.4 °F 15.8 °F 24.8 °F 86% 30.02 in 9.0 mi East 18.4 mph 27.6 mph 0.00 in   Overcast
1:53 AM 28.0 °F 13.6 °F 24.1 °F 85% 30.08 in 7.0 mi East 24.2 mph 32.2 mph 0.00 in   Overcast
2:53 AM 27.0 °F 11.9 °F 23.0 °F 85% 30.06 in 7.0 mi East 25.3 mph 29.9 mph 0.00 in   Overcast
3:53 AM 27.0 °F 13.2 °F 23.0 °F 85% 30.05 in 10.0 mi ENE 20.7 mph - 0.00 in   Overcast
4:01 AM 26.6 °F 12.7 °F 23.0 °F 86% 29.97 in 10.0 mi ENE 20.7 mph 26.5 mph N/A   Overcast
4:53 AM 27.0 °F 13.9 °F 23.0 °F 85% 30.05 in 10.0 mi East 18.4 mph - N/A   Overcast
5:53 AM 26.1 °F 13.1 °F 21.9 °F 84% 30.04 in 10.0 mi East 17.3 mph 27.6 mph N/A   Overcast
6:53 AM 26.1 °F 11.3 °F 21.9 °F 84% 30.03 in 9.0 mi East 23.0 mph 28.8 mph 0.00 in   Overcast
7:07 AM 24.8 °F 9.6 °F 21.2 °F 86% 29.94 in 9.0 mi East 23.0 mph 29.9 mph N/A   Overcast
7:53 AM 26.1 °F 13.1 °F 23.0 °F 88% 30.03 in 2.5 mi ENE 17.3 mph - 0.00 in Snow Light Snow
8:10 AM 26.6 °F 13.1 °F 23.0 °F 86% 29.96 in 6.0 mi East 19.6 mph 25.3 mph 0.00 in   Overcast
8:40 AM 26.6 °F 13.4 °F 23.0 °F 86% 29.96 in 2.0 mi ENE 18.4 mph 28.8 mph 0.00 in Snow Light Snow
8:53 AM 26.1 °F 11.6 °F 23.0 °F 88% 30.04 in 2.0 mi ENE 21.9 mph - 0.00 in Snow Light Snow
9:00 AM 26.6 °F 13.1 °F 23.0 °F 86% 29.95 in 1.8 mi East 19.6 mph 25.3 mph 0.00 in Snow Light Snow
9:53 AM 25.0 °F 10.2 °F 23.0 °F 92% 30.04 in 1.2 mi ENE 21.9 mph - 0.00 in Snow Light Snow
10:26 AM 26.6 °F 12.4 °F 24.8 °F 93% 29.96 in 1.0 mi East 21.9 mph 29.9 mph 0.00 in Snow Light Snow
10:35 AM 26.6 °F 12.0 °F 23.0 °F 86% 29.95 in 1.5 mi ENE 23.0 mph - 0.00 in Snow Light Snow
10:50 AM 26.6 °F 12.7 °F 24.8 °F 93% 29.96 in 1.2 mi ENE 20.7 mph 25.3 mph 0.00 in Rain Light Freezing Rain
10:53 AM 26.1 °F 12.7 °F 24.1 °F 92% 30.04 in 1.2 mi East 18.4 mph - 0.00 in Rain Light Freezing Rain
11:10 AM 26.6 °F 13.8 °F 23.0 °F 86% 29.94 in 2.0 mi ENE 17.3 mph 32.2 mph 0.00 in Rain Light Freezing Rain
11:17 AM 26.6 °F 12.4 °F 24.8 °F 93% 29.93 in 1.2 mi ENE 21.9 mph 25.3 mph 0.00 in Rain Light Freezing Rain
11:53 AM 26.1 °F 11.6 °F 23.0 °F 88% 30.01 in 1.2 mi ENE 21.9 mph - 0.00 in Rain Light Freezing Rain
12:04 PM 26.6 °F 13.8 °F 24.8 °F 93% 29.92 in 1.0 mi ENE 17.3 mph 27.6 mph 0.00 in Rain Light Freezing Rain
12:12 PM 26.6 °F 12.4 °F 24.8 °F 93% 29.91 in 1.0 mi ENE 21.9 mph 27.6 mph 0.00 in Rain Light Freezing Rain
12:53 PM 26.1 °F 12.0 °F 23.0 °F 88% 30.00 in 1.0 mi East 20.7 mph 28.8 mph 0.00 in Rain Light Freezing Rain
1:00 PM 26.6 °F 13.4 °F 23.0 °F 86% 29.92 in 1.2 mi ENE 18.4 mph 28.8 mph 0.00 in Rain Light Freezing Rain
1:25 PM 26.6 °F 13.8 °F 23.0 °F 86% 29.90 in 2.0 mi ENE 17.3 mph 27.6 mph 0.00 in Rain Light Freezing Rain
1:29 PM 26.6 °F 13.8 °F 23.0 °F 86% 29.91 in 3.0 mi East 17.3 mph 25.3 mph 0.00 in   Overcast
1:40 PM 26.6 °F 13.4 °F 23.0 °F 86% 29.90 in 10.0 mi East 18.4 mph 26.5 mph 0.00 in   Overcast
1:53 PM 26.1 °F 12.3 °F 23.0 °F 88% 29.98 in 10.0 mi East 19.6 mph - 0.00 in   Overcast
2:53 PM 26.1 °F 12.3 °F 23.0 °F 88% 29.99 in 4.0 mi East 19.6 mph 25.3 mph N/A   Overcast
3:01 PM 26.6 °F 13.1 °F 23.0 °F 86% 29.90 in 2.5 mi East 19.6 mph 26.5 mph N/A   Overcast
3:19 PM 24.8 °F 11.5 °F 23.0 °F 93% 29.90 in 1.5 mi ENE 17.3 mph 26.5 mph N/A   Overcast
3:50 PM 24.8 °F 11.5 °F 23.0 °F 93% 29.90 in 0.8 mi ENE 17.3 mph - 0.00 in Snow Light Snow
3:53 PM 25.0 °F 12.2 °F 23.0 °F 92% 29.99 in 0.8 mi ENE 16.1 mph - 0.01 in Snow Light Snow
4:15 PM 24.8 °F 11.5 °F 23.0 °F 93% 29.90 in 0.2 mi ENE 17.3 mph - 0.00 in Fog , Snow Snow
4:22 PM 24.8 °F 11.9 °F 21.2 °F 86% 29.90 in 0.5 mi ENE 16.1 mph - 0.00 in Fog , Snow Light Snow
4:41 PM 24.8 °F 11.9 °F 21.2 °F 86% 29.90 in 1.2 mi ENE 16.1 mph - 0.00 in Snow Light Snow
4:46 PM 24.8 °F 11.9 °F 21.2 °F 86% 29.90 in 2.0 mi ENE 16.1 mph - 0.00 in Snow Light Snow
4:53 PM 24.1 °F 9.8 °F 21.0 °F 88% 29.99 in 2.5 mi ENE 19.6 mph - 0.01 in Snow Light Snow
5:00 PM 24.8 °F 12.4 °F 21.2 °F 86% 29.91 in 3.0 mi ENE 15.0 mph - 0.00 in Snow Light Snow
5:27 PM 23.0 °F 8.3 °F 19.4 °F 86% 29.91 in 3.0 mi ENE 19.6 mph 27.6 mph 0.00 in Snow Light Snow
5:34 PM 23.0 °F 8.3 °F 19.4 °F 86% 29.92 in 3.0 mi ENE 19.6 mph - 0.00 in Snow Light Snow
5:53 PM 21.9 °F 6.5 °F 19.0 °F 89% 30.01 in 4.0 mi ENE 20.7 mph - 0.00 in Snow Light Snow
6:53 PM 21.9 °F 7.8 °F 18.0 °F 85% 30.02 in 7.0 mi ENE 17.3 mph - 0.00 in   Overcast
7:53 PM 19.9 °F 4.3 °F 17.1 °F 89% 30.03 in 10.0 mi ENE 19.6 mph - N/A   Overcast
8:53 PM 19.9 °F 4.8 °F 16.0 °F 85% 30.02 in 9.0 mi ENE 18.4 mph 24.2 mph N/A   Overcast
9:13 PM 19.4 °F 3.6 °F 15.8 °F 86% 29.91 in 2.0 mi ENE 19.6 mph - 0.00 in Snow Light Snow
9:23 PM 19.4 °F 4.5 °F 15.8 °F 86% 29.92 in 1.8 mi ENE 17.3 mph - 0.00 in Snow Light Snow
9:45 PM 19.4 °F 3.6 °F 15.8 °F 86% 29.93 in 2.0 mi ENE 19.6 mph - 0.00 in Snow Light Snow
9:53 PM 19.0 °F 4.5 °F 16.0 °F 88% 30.03 in 2.5 mi ENE 16.1 mph - 0.00 in Snow Light Snow
10:02 PM 19.4 °F 4.1 °F 15.8 °F 86% 29.93 in 3.0 mi ENE 18.4 mph - 0.00 in Snow Light Snow
10:10 PM 19.4 °F 5.0 °F 15.8 °F 86% 29.92 in 2.5 mi ENE 16.1 mph - 0.00 in Snow Light Snow
10:46 PM 19.4 °F 5.0 °F 15.8 °F 86% 29.91 in 1.5 mi ENE 16.1 mph - 0.00 in Snow Light Snow
10:53 PM 19.0 °F 4.5 °F 15.1 °F 85% 30.02 in 1.5 mi ENE 16.1 mph - 0.00 in Snow Light Snow
11:10 PM 19.4 °F 6.0 °F 15.8 °F 86% 29.93 in 2.5 mi ENE 13.8 mph - 0.00 in Snow Light Snow
11:53 PM 19.0 °F 5.0 °F 15.1 °F 85% 30.02 in 2.0 mi ENE 15.0 mph - 0.00 in Snow Light Snow
11:59 PM 19.4 °F 5.5 °F 15.8 °F 86% 29.91 in 1.5 mi ENE 15.0 mph - 0.00 in Snow Light Snow